Weather History for Kansas City International, MO

Change the Weather History Date:

Thursday, July 4, 2013

  Actual Average Record
Temperature  
Mean Temperature 71 °F 78 °F  
Max Temperature 85 °F 88 °F 108 °F (1936)
Min Temperature 57 °F 68 °F 54 °F (1997)
Degree Days  
Heating Degree Days 0 0  
Month to date heating degree days 0 0  
Since 1 June heating degree days 17 9  
Since 1 July heating degree days 0 0  
Cooling Degree Days 6 13  
Month to date cooling degree days 23 50  
Year to date cooling degree days 404 432  
Since 1 June cooling degree days 299 316  
Growing Degree Days 20 (Base 50)    
Moisture  
Dew Point 55 °F    
Average Humidity 60    
Maximum Humidity 86    
Minimum Humidity 34    
Precipitation  
Precipitation 0.00 in 0.15 in 3.63 in (1984)
Month to date precipitation T 0.64  
Year to date precipitation 18.05 19.70  
Snow  
Snow 0.00 in 0.00 in 0.00 in ()
Month to date snowfall 0.0 0.0  
Since 1 June snowfall 0.0 0.0  
Since 1 July snowfall 0.0 0.0  
Snow Depth 0.00 in    
Sea Level Pressure  
Sea Level Pressure 29.99 in    
Wind  
Wind Speed 8 mph (SSE)    
Max Wind Speed 15 mph    
Max Gust Speed 18 mph    
Visibility 10 miles    
Events      
T = Trace of Precipitation, MM = Missing Value Source: NWS Daily Summary

Daily Weather History Graph

Daily Weather History Graph

Search for Another Location

Airport:

Trip Planner

Search our weather history database for the weather conditions in past years. The results will help you decide how hot, cold, wet, or windy it might be!

Date:

Astronomy

Jul. 04, 2013 Rise Set
Actual Time 5:57 AM CDT 8:48 PM CDT
Civil Twilight 5:25 AM CDT 9:20 PM CDT
Nautical Twilight 4:45 AM CDT 10:01 PM CDT
Astronomical Twilight 3:59 AM CDT 10:47 PM CDT
Moon 3:14 AM CDT (7/4) 5:54 PM CDT (7/4)
Length of Visible Light 15h 55m
Length of Day
14h 51m
Waning Crescent, 11% of the Moon is Illuminated
Jul 4
Waning Crescent
Jul 8
New
Jul 15
First Quarter
Jul 22
Full
Jul 29
Last Quarter

Hourly Weather History & Observations

Time (CDT) Temp. Heat Index Dew Point Humidity Pressure Visibility Wind Dir Wind Speed Gust Speed Precip Events Conditions
12:53 AM 57.9 °F - 54.0 °F 87% 30.01 in 10.0 mi South 8.1 mph - N/A   Scattered Clouds
1:53 AM 57.9 °F - 53.1 °F 84% 30.00 in 10.0 mi South 9.2 mph - N/A   Partly Cloudy
2:53 AM 57.9 °F - 52.0 °F 81% 29.99 in 10.0 mi SSE 6.9 mph - N/A   Partly Cloudy
3:53 AM 57.9 °F - 52.0 °F 81% 29.99 in 10.0 mi SSE 6.9 mph - N/A   Partly Cloudy
4:53 AM 57.9 °F - 52.0 °F 81% 30.00 in 10.0 mi SSE 8.1 mph - N/A   Scattered Clouds
5:53 AM 60.1 °F - 52.0 °F 75% 30.01 in 10.0 mi SSE 4.6 mph - N/A   Partly Cloudy
6:53 AM 60.1 °F - 54.0 °F 80% 30.03 in 10.0 mi SSE 8.1 mph - N/A   Partly Cloudy
7:53 AM 66.0 °F - 55.9 °F 70% 30.04 in 10.0 mi South 6.9 mph - N/A   Partly Cloudy
8:53 AM 70.0 °F - 57.9 °F 65% 30.04 in 10.0 mi SSW 9.2 mph - N/A   Partly Cloudy
9:53 AM 73.9 °F - 57.9 °F 57% 30.04 in 10.0 mi SSW 5.8 mph - N/A   Partly Cloudy
10:53 AM 77.0 °F - 59.0 °F 54% 30.03 in 10.0 mi South 9.2 mph - N/A   Partly Cloudy
11:53 AM 80.1 °F 80.7 °F 59.0 °F 48% 30.03 in 10.0 mi South 9.2 mph - N/A   Partly Cloudy
12:53 PM 81.0 °F 80.8 °F 55.9 °F 42% 30.02 in 10.0 mi South 6.9 mph - N/A   Partly Cloudy
1:53 PM 82.9 °F 82.0 °F 55.0 °F 38% 30.00 in 10.0 mi SE 9.2 mph 17.3 mph N/A   Partly Cloudy
2:53 PM 82.9 °F 81.9 °F 54.0 °F 37% 29.99 in 10.0 mi South 12.7 mph - N/A   Partly Cloudy
3:53 PM 84.0 °F 82.6 °F 54.0 °F 35% 29.98 in 10.0 mi South 12.7 mph - N/A   Scattered Clouds
4:53 PM 84.0 °F 82.5 °F 53.1 °F 34% 29.96 in 10.0 mi South 9.2 mph - N/A   Scattered Clouds
5:53 PM 82.9 °F 81.8 °F 53.1 °F 36% 29.95 in 10.0 mi SSE 8.1 mph - N/A   Scattered Clouds
6:53 PM 82.0 °F 81.6 °F 55.9 °F 41% 29.94 in 10.0 mi SSE 5.8 mph - N/A   Partly Cloudy
7:53 PM 79.0 °F - 55.9 °F 45% 29.94 in 10.0 mi SE 5.8 mph - N/A   Partly Cloudy
8:53 PM 73.9 °F - 55.9 °F 53% 29.94 in 10.0 mi SE 6.9 mph - N/A   Scattered Clouds
9:53 PM 72.0 °F - 55.0 °F 55% 29.95 in 10.0 mi SE 6.9 mph - N/A   Scattered Clouds
10:53 PM 73.0 °F - 55.0 °F 53% 29.96 in 10.0 mi SSE 11.5 mph - N/A   Partly Cloudy
11:53 PM 71.1 °F - 57.0 °F 61% 29.96 in 10.0 mi SSE 9.2 mph - N/A   Clear